GW3482 Weather Reports


time (UTC)temp
F
wind
direction
speed
knots
gust
knots
rain 1hr
in
rain 24hr
in
rain mn
in
humidity
%
barometer
mb
20260507151229 0 311 1.7 1.7 0.00 0.00 0.00 1018.2
20260507150726 0 200 0.0 1.7 0.00 0.00 0.00 1018.0
20260507150222 0 237 0.0 1.7 0.00 0.00 0.00 1018.0
20260507145718 0 232 0.0 0.0 0.00 0.00 0.00 1018.0
20260507145215 0 324 0.9 2.6 0.00 0.00 0.00 1017.9
20260507144712 0 231 0.9 0.9 0.00 0.00 0.00 1017.9
20260507144210 0 251 0.0 0.0 0.00 0.00 0.00 1017.8
20260507143706 0 303 0.9 1.7 0.00 0.00 0.00 1018.0
20260507143203 0 251 0.9 1.7 0.00 0.00 0.00 1017.8
20260507142659 0 247 0.0 0.0 0.00 0.00 0.00 1017.7
20260507142156 0 247 0.9 0.9 0.00 0.00 0.00 1017.6
20260507141652 0 207 0.0 0.0 0.00 0.00 0.00 1017.7
20260507141149 0 218 0.9 0.9 0.00 0.00 0.00 1017.8
20260507140645 0 248 0.0 0.9 0.00 0.00 0.00 1017.6
20260507140143 0 248 0.0 0.9 0.00 0.00 0.00 1017.6
20260507135640 0 248 0.9 0.9 0.00 0.00 0.00 1017.5
20260507135137 0 245 0.0 0.9 0.00 0.00 0.00 1017.4
20260507134633 0 245 0.0 0.0 0.00 0.00 0.00 1017.5
20260507134130 0 245 0.0 0.0 0.00 0.00 0.00 1017.6
20260507133626 0 244 0.9 1.7 0.00 0.00 0.00 1017.4
20260507133123 0 244 0.0 0.9 0.00 0.00 0.00 1017.4
20260507132620 0 243 0.0 0.0 0.00 0.00 0.00 1017.4
20260507132116 0 245 0.0 0.9 0.00 0.00 0.00 1017.3
20260507131613 0 241 0.0 0.0 0.00 0.00 0.00 1017.4
20260507131111 0 242 0.0 0.9 0.00 0.00 0.00 1017.5
20260507130607 0 240 0.9 0.9 0.00 0.00 0.00 1017.4
20260507130106 0 37 0.9 1.7 0.00 0.00 0.00 1017.4
20260507125604 0 239 0.0 0.9 0.00 0.00 0.00 1017.3
20260507125101 0 231 0.0 0.0 0.00 0.00 0.00 1017.4
20260507124557 0 228 0.0 0.9 0.00 0.00 0.00 1017.3
20260507124055 0 222 0.0 0.9 0.00 0.00 0.00 1017.4
20260507123553 0 237 0.9 1.7 0.00 0.00 0.00 1017.2
20260507123050 0 230 0.0 0.9 0.00 0.00 0.00 1017.2
20260507122545 0 235 0.0 1.7 0.00 0.00 0.00 1017.0
20260507122041 0 233 0.0 0.9 0.00 0.00 0.00 1017.2
20260507121537 0 233 0.0 0.0 0.00 0.00 0.00 1017.1
20260507121033 0 233 0.0 0.0 0.00 0.00 0.00 1017.2
20260507120529 0 236 0.0 0.9 0.00 0.00 0.00 1017.1
20260507120026 0 236 0.0 0.9 0.00 0.00 0.00 1017.3
20260507115522 0 233 0.9 1.7 0.00 0.00 0.00 1017.1
20260507115018 0 227 0.9 0.9 0.00 0.00 0.00 1017.0
20260507114515 0 224 0.0 0.0 0.00 0.00 0.00 1017.2
20260507114012 0 224 0.0 0.9 0.00 0.00 0.00 1017.1
20260507113509 0 224 0.0 0.9 0.00 0.00 0.00 1017.0
20260507113006 0 222 0.0 0.9 0.00 0.00 0.00 1017.1
20260507112504 0 234 1.7 1.7 0.00 0.00 0.00 1017.0
20260507112000 0 210 0.0 0.9 0.00 0.00 0.00 1017.1
20260507111459 0 208 0.0 0.0 0.00 0.00 0.00 1017.2
20260507110954 0 208 0.0 0.0 0.00 0.00 0.00 1017.3
20260507110450 0 209 0.9 0.9 0.00 0.00 0.00 1017.2
20260507105947 0 195 0.0 0.9 0.00 0.00 0.00 1017.3
20260507105444 0 195 0.0 0.0 0.00 0.00 0.00 1017.2
20260507104940 0 195 0.0 0.0 0.00 0.00 0.00 1017.2
20260507104438 0 194 0.0 0.0 0.00 0.00 0.00 1017.5
20260507103933 0 194 0.0 0.0 0.00 0.00 0.00 1017.3
20260507103430 0 194 0.0 0.9 0.00 0.00 0.00 1017.3
20260507102926 0 167 0.0 0.0 0.00 0.00 0.00 1017.4
20260507102423 0 167 0.0 0.0 0.00 0.00 0.00 1017.6
20260507101919 0 167 0.0 0.0 0.00 0.00 0.00 1017.5
20260507101414 0 167 0.0 0.0 0.00 0.00 0.00 1017.6
20260507100911 0 152 0.0 0.0 0.00 0.00 0.00 1017.5
20260507100409 0 127 0.0 0.9 0.00 0.00 0.00 1017.6
20260507095907 0 160 0.0 0.0 0.00 0.00 0.00 1017.6
20260507095403 0 160 0.0 0.0 0.00 0.00 0.00 1017.7
20260507094901 0 160 0.0 0.0 0.00 0.00 0.00 1017.6
20260507094357 0 160 0.0 0.0 0.00 0.00 0.00 1017.5
20260507093854 0 160 0.0 0.0 0.00 0.00 0.00 1017.6
20260507093352 0 160 0.0 0.0 0.00 0.00 0.00 1017.7
20260507092850 0 160 0.0 0.0 0.00 0.00 0.00 1017.6
20260507092346 0 160 0.0 0.0 0.00 0.00 0.00 1017.8
20260507091843 0 171 0.0 0.0 0.00 0.00 0.00 1017.7
20260507091339 0 204 0.0 0.0 0.00 0.00 0.00 1017.7
20260507090835 0 190 0.0 0.0 0.00 0.00 0.00 1017.9
20260507090331 0 155 0.0 0.0 0.00 0.00 0.00 1018.1
20260507085829 0 155 0.0 0.0 0.00 0.00 0.00 1018.1
20260507085325 0 155 0.0 0.0 0.00 0.00 0.00 1018.2
20260507084823 0 154 0.0 0.0 0.00 0.00 0.00 1018.2
20260507084319 0 154 0.0 0.0 0.00 0.00 0.00 1018.2
20260507083817 0 154 0.0 0.0 0.00 0.00 0.00 1018.2
20260507083313 0 154 0.0 0.0 0.00 0.00 0.00 1018.3
20260507082809 0 154 0.0 0.0 0.00 0.00 0.00 1018.3
20260507082306 0 154 0.0 0.0 0.00 0.00 0.00 1018.4
20260507081802 0 154 0.0 0.0 0.00 0.00 0.00 1018.3
20260507081258 0 154 0.0 0.0 0.00 0.00 0.00 1018.4
20260507080755 0 154 0.0 0.0 0.00 0.00 0.00 1018.5
20260507080251 0 154 0.0 0.0 0.00 0.00 0.00 1018.5
20260507075746 0 154 0.0 0.0 0.00 0.00 0.00 1018.3
20260507075243 0 167 0.0 0.0 0.00 0.00 0.00 1018.5
20260507074739 0 134 0.0 0.0 0.00 0.00 0.00 1018.5
20260507074237 0 244 0.0 0.9 0.00 0.00 0.00 1018.4
20260507073734 0 243 0.0 0.9 0.00 0.00 0.00 1018.6
20260507073230 0 245 0.0 1.7 0.00 0.00 0.00 1018.6
20260507072728 0 242 0.0 0.0 0.00 0.00 0.00 1018.5
20260507072225 0 242 0.0 0.0 0.00 0.00 0.00 1018.7
20260507071723 0 242 0.0 0.0 0.00 0.00 0.00 1018.5
20260507071219 0 242 0.0 0.0 0.00 0.00 0.00 1018.8
20260507070716 0 242 0.0 0.0 0.00 0.00 0.00 1018.6
20260507070213 0 242 0.0 0.0 0.00 0.00 0.00 1018.5
20260507065709 0 242 0.0 0.0 0.00 0.00 0.00 1018.6
20260507065206 0 242 0.0 0.0 0.00 0.00 0.00 1018.7
20260507064704 0 242 0.0 0.0 0.00 0.00 0.00 1018.8
20260507064203 0 242 0.0 0.0 0.00 0.00 0.00 1018.8
20260507063659 0 242 0.0 0.0 0.00 0.00 0.00 1018.8
20260507063156 0 242 0.0 0.0 0.00 0.00 0.00 1018.9
20260507062653 0 242 0.0 0.0 0.00 0.00 0.00 1018.8
20260507062151 0 263 0.0 0.9 0.00 0.00 0.00 1018.8
20260507061648 0 247 0.0 0.9 0.00 0.00 0.00 1018.8
20260507061146 0 4 0.9 1.7 0.00 0.00 0.00 1018.7
20260507060644 0 215 0.0 0.9 0.00 0.00 0.00 1018.8
20260507060140 0 231 0.0 1.7 0.00 0.00 0.00 1018.8
20260507055635 0 239 0.0 0.9 0.00 0.00 0.00 1018.8
20260507055132 0 223 0.0 0.9 0.00 0.00 0.00 1018.9
20260507054628 0 203 0.9 0.9 0.00 0.00 0.00 1018.9
20260507054125 0 226 0.9 0.9 0.00 0.00 0.00 1018.6
20260507053623 0 246 0.9 1.7 0.00 0.00 0.00 1018.7
20260507053121 0 298 0.9 1.7 0.00 0.00 0.00 1018.9
20260507052619 0 246 0.9 1.7 0.00 0.00 0.00 1018.8
20260507052115 0 247 0.9 2.6 0.00 0.00 0.00 1018.7
20260507051613 0 257 0.9 1.7 0.00 0.00 0.00 1018.8
20260507051109 0 241 1.7 2.6 0.00 0.00 0.00 1018.8
20260507050606 0 257 0.9 1.7 0.00 0.00 0.00 1018.7
20260507050103 0 328 1.7 1.7 0.00 0.00 0.00 1018.8
20260507045559 0 241 0.9 1.7 0.00 0.00 0.00 1018.8
20260507045057 0 233 0.0 1.7 0.00 0.00 0.00 1018.7
20260507044553 0 237 0.9 1.7 0.00 0.00 0.00 1018.7
20260507044050 0 237 0.0 0.9 0.00 0.00 0.00 1018.6
20260507043546 0 236 0.0 0.9 0.00 0.00 0.00 1018.6
20260507043044 0 233 0.0 1.7 0.00 0.00 0.00 1018.7
20260507042539 0 229 0.0 2.6 0.00 0.00 0.00 1018.5
20260507042035 0 236 0.9 1.7 0.00 0.00 0.00 1018.5
20260507041532 0 284 1.7 3.5 0.00 0.00 0.00 1018.6
20260507041029 0 245 0.9 1.7 0.00 0.00 0.00 1018.4
20260507040525 0 233 0.9 1.7 0.00 0.00 0.00 1018.6
20260507040021 0 238 0.9 2.6 0.00 0.00 0.00 1018.4
20260507035518 0 249 0.9 2.6 0.00 0.00 0.00 1018.5
20260507035014 0 289 1.7 3.5 0.00 0.00 0.00 1018.3
20260507034511 0 242 1.7 3.5 0.00 0.00 0.00 1018.2
20260507034009 0 264 0.9 3.5 0.00 0.00 0.00 1018.1
20260507033507 0 239 1.7 2.6 0.00 0.00 0.00 1018.2
20260507033004 0 257 3.5 3.5 0.00 0.00 0.00 1018.4
20260507032501 0 306 2.6 5.2 0.00 0.00 0.00 1018.2
20260507031957 0 319 0.9 3.5 0.00 0.00 0.00 1018.2
20260507031453 0 290 0.9 3.5 0.00 0.00 0.00 1018.0
20260507030950 0 340 0.9 1.7 0.00 0.00 0.00 1018.0
20260507030447 0 291 1.7 3.5 0.00 0.00 0.00 1018.1
20260507025944 0 220 0.9 2.6 0.00 0.00 0.00 1018.0
20260507025441 0 236 2.6 3.5 0.00 0.00 0.00 1017.9
20260507024939 0 248 0.9 2.6 0.00 0.00 0.00 1018.0
20260507024437 0 234 1.7 5.2 0.00 0.00 0.00 1017.7
20260507023932 0 248 1.7 3.5 0.00 0.00 0.00 1017.9
20260507023429 0 305 2.6 3.5 0.00 0.00 0.00 1017.9
20260507022926 0 298 2.6 2.6 0.00 0.00 0.00 1017.7
20260507022424 0 248 1.7 7.8 0.00 0.00 0.00 1017.9
20260507021919 0 242 0.9 7.0 0.00 0.00 0.00 1017.8
20260507021414 0 247 2.6 2.6 0.00 0.00 0.00 1017.9
20260507020912 0 254 0.9 7.0 0.00 0.00 0.00 1017.8
20260507020408 0 302 5.2 7.0 0.00 0.00 0.00 1017.8
20260507015906 0 349 3.5 6.1 0.00 0.00 0.00 1017.5
20260507015404 0 244 2.6 2.6 0.00 0.00 0.00 1017.7
20260507014901 0 274 2.6 3.5 0.00 0.00 0.00 1017.6
20260507014356 0 274 3.5 7.0 0.00 0.00 0.00 1017.7
20260507013853 0 260 1.7 5.2 0.00 0.00 0.00 1017.8
20260507013350 0 288 3.5 6.1 0.00 0.00 0.00 1017.7
20260507012848 0 226 4.3 7.0 0.00 0.00 0.00 1017.6
20260507012343 0 245 2.6 7.0 0.00 0.00 0.00 1017.7
20260507011840 0 293 1.7 7.8 0.00 0.00 0.00 1017.7
20260507011337 0 282 0.9 3.5 0.00 0.00 0.00 1017.5
20260507010832 0 277 5.2 6.1 0.00 0.00 0.00 1017.6
20260507010328 0 282 3.5 6.1 0.00 0.00 0.00 1017.6
20260507005825 0 267 0.9 8.7 0.00 0.00 0.00 1017.6
20260507005322 0 265 2.6 5.2 0.00 0.00 0.00 1017.9
20260507004818 0 265 4.3 8.7 0.00 0.00 0.00 1017.5
20260507004315 0 278 5.2 7.8 0.00 0.00 0.00 1017.5
20260507003812 0 285 3.5 7.0 0.00 0.00 0.00 1017.6
20260507003302 0 264 1.7 7.0 0.00 0.00 0.00 1017.6
20260507002757 0 327 3.5 7.8 0.00 0.00 0.00 1017.4
20260507002254 0 276 4.3 6.1 0.00 0.00 0.00 1017.4
20260507001751 0 269 3.5 7.0 0.00 0.00 0.00 1017.4
20260507001249 0 277 3.5 5.2 0.00 0.00 0.00 1017.3
20260507000744 0 327 4.3 7.8 0.00 0.00 0.00 1017.3
20260507000240 0 242 2.6 8.7 0.00 0.00 0.00 1017.5
20260506235737 0 294 2.6 7.0 0.00 0.00 0.00 1017.4
20260506235232 0 282 4.3 8.7 0.00 0.00 0.00 1017.3
20260506234730 0 303 4.3 9.6 0.00 0.00 0.00 1017.3
20260506234227 0 278 2.6 7.0 0.00 0.00 0.00 1017.4
20260506233725 0 263 5.2 7.0 0.00 0.00 0.00 1017.5
20260506233221 0 263 7.8 9.6 0.00 0.00 0.00 1017.3
20260506232718 0 236 3.5 6.1 0.00 0.00 0.00 1017.5
20260506232212 0 262 7.0 9.6 0.00 0.00 0.00 1017.4
20260506231710 0 287 2.6 8.7 0.00 0.00 0.00 1017.6
20260506231209 0 306 3.5 7.0 0.00 0.00 0.00 1017.5
20260506230704 0 308 3.5 7.8 0.00 0.00 0.00 1017.6
20260506230202 0 279 6.1 7.8 0.00 0.00 0.00 1017.5
20260506225658 0 258 5.2 7.0 0.00 0.00 0.00 1017.5
20260506225155 0 261 3.5 7.8 0.00 0.00 0.00 1017.5
20260506224651 0 328 1.7 7.0 0.00 0.00 0.00 1017.8
20260506224148 0 318 5.2 7.8 0.00 0.00 0.00 1017.8
20260506223645 0 261 3.5 9.6 0.00 0.00 0.00 1017.8
20260506223140 0 276 2.6 8.7 0.00 0.00 0.00 1017.8
20260506222638 0 350 1.7 8.7 0.00 0.00 0.00 1017.9
20260506222134 0 247 4.3 11.3 0.00 0.00 0.00 1017.9
20260506221632 0 274 5.2 7.8 0.00 0.00 0.00 1017.9
20260506221130 0 280 5.2 9.6 0.00 0.00 0.00 1018.0
20260506220626 0 235 3.5 7.8 0.00 0.00 0.00 1017.9
20260506220121 0 244 2.6 6.1 0.00 0.00 0.00 1018.0
20260506215618 0 324 3.5 7.0 0.00 0.00 0.00 1018.1
20260506215113 0 251 2.6 9.6 0.00 0.00 0.00 1018.1
20260506214611 0 315 3.5 6.1 0.00 0.00 0.00 1018.4
20260506214108 0 245 2.6 6.1 0.00 0.00 0.00 1018.2
20260506213606 0 264 4.3 6.1 0.00 0.00 0.00 1018.1
20260506213103 0 274 3.5 11.3 0.00 0.00 0.00 1018.3
20260506212559 0 240 2.6 7.0 0.00 0.00 0.00 1018.2
20260506212049 0 302 4.3 7.8 0.00 0.00 0.00 1018.1
20260506211545 0 327 1.7 7.8 0.00 0.00 0.00 1018.4
20260506211042 0 289 1.7 5.2 0.00 0.00 0.00 1018.3
20260506210539 0 277 5.2 7.8 0.00 0.00 0.00 1018.2
20260506210035 0 299 4.3 7.8 0.00 0.00 0.00 1018.2
20260506205532 0 244 4.3 7.8 0.00 0.00 0.00 1018.2
20260506205027 0 269 5.2 9.6 0.00 0.00 0.00 1018.3
20260506204526 0 318 5.2 12.2 0.00 0.00 0.00 1018.1
20260506204022 0 321 3.5 8.7 0.00 0.00 0.00 1018.2
20260506203521 0 280 3.5 7.8 0.00 0.00 0.00 1018.2
20260506203017 0 181 6.1 9.6 0.00 0.00 0.00 1018.3
20260506202514 0 348 5.2 12.2 0.00 0.00 0.00 1018.3
20260506202010 0 272 4.3 8.7 0.00 0.00 0.00 1018.3
20260506201508 0 233 5.2 11.3 0.00 0.00 0.00 1018.6
20260506201004 0 280 3.5 6.1 0.00 0.00 0.00 1018.5
20260506200501 0 239 5.2 7.8 0.00 0.00 0.00 1018.3
20260506195957 0 289 5.2 12.2 0.00 0.00 0.00 1018.5
20260506195455 0 320 3.5 6.1 0.00 0.00 0.00 1018.7
20260506194950 0 303 3.5 7.8 0.00 0.00 0.00 1018.7
20260506194448 0 262 6.1 7.8 0.00 0.00 0.00 1018.9
20260506193945 0 309 3.5 7.0 0.00 0.00 0.00 1019.0
20260506193442 0 299 3.5 7.8 0.00 0.00 0.00 1018.9
20260506192938 0 257 5.2 7.0 0.00 0.00 0.00 1018.8
20260506192436 0 327 2.6 7.8 0.00 0.00 0.00 1018.8
20260506191932 0 244 1.7 7.0 0.00 0.00 0.00 1018.9
20260506191429 0 267 5.2 7.8 0.00 0.00 0.00 1018.8
20260506190925 0 193 2.6 7.8 0.00 0.00 0.00 1019.1
20260506190422 0 223 0.9 7.0 0.00 0.00 0.00 1018.9
20260506185919 0 237 3.5 3.5 0.00 0.00 0.00 1018.9
20260506185416 0 231 4.3 7.0 0.00 0.00 0.00 1019.1
20260506184913 0 300 3.5 6.1 0.00 0.00 0.00 1019.2
20260506184410 0 346 1.7 5.2 0.00 0.00 0.00 1019.2
20260506183908 0 285 1.7 6.1 0.00 0.00 0.00 1019.2
20260506183403 0 251 2.6 6.1 0.00 0.00 0.00 1019.3
20260506182900 0 264 3.5 7.8 0.00 0.00 0.00 1019.4
20260506182357 0 223 3.5 7.0 0.00 0.00 0.00 1019.3
20260506181854 0 240 0.9 2.6 0.00 0.00 0.00 1019.2
20260506181352 0 315 2.6 6.1 0.00 0.00 0.00 1019.4
20260506180849 0 232 2.6 3.5 0.00 0.00 0.00 1019.5
20260506180345 0 214 0.9 3.5 0.00 0.00 0.00 1019.3
20260506175842 0 298 4.3 7.8 0.00 0.00 0.00 1019.5
20260506175339 0 279 1.7 5.2 0.00 0.00 0.00 1019.4
20260506174836 0 245 0.9 6.1 0.00 0.00 0.00 1019.5
20260506174333 0 278 2.6 5.2 0.00 0.00 0.00 1019.8
20260506173831 0 296 2.6 7.8 0.00 0.00 0.00 1019.8
20260506173327 0 358 3.5 5.2 0.00 0.00 0.00 1019.7
20260506172824 0 278 2.6 6.1 0.00 0.00 0.00 1019.8
20260506172321 0 297 2.6 6.1 0.00 0.00 0.00 1019.9
20260506171818 0 248 1.7 5.2 0.00 0.00 0.00 1019.9
20260506171315 0 252 4.3 6.1 0.00 0.00 0.00 1019.8
20260506170813 0 284 1.7 3.5 0.00 0.00 0.00 1020.0
20260506170309 0 270 1.7 6.1 0.00 0.00 0.00 1019.8
20260506165808 0 312 1.7 6.1 0.00 0.00 0.00 1019.9
20260506165306 0 331 1.7 5.2 0.00 0.00 0.00 1019.8
20260506164802 0 297 4.3 7.0 0.00 0.00 0.00 1019.8
20260506164258 0 259 4.3 6.1 0.00 0.00 0.00 1019.7
20260506163755 0 255 1.7 2.6 0.00 0.00 0.00 1019.5
20260506163250 0 251 1.7 2.6 0.00 0.00 0.00 1019.7
20260506162746 0 257 2.6 6.1 0.00 0.00 0.00 1019.7
20260506162244 0 214 0.9 2.6 0.00 0.00 0.00 1019.7
20260506161741 0 320 2.6 3.5 0.00 0.00 0.00 1019.8
20260506161239 0 289 4.3 6.1 0.00 0.00 0.00 1019.5
20260506160736 0 278 0.9 2.6 0.00 0.00 0.00 1019.8
20260506160232 0 20 1.7 1.7 0.00 0.00 0.00 1019.5
20260506155731 0 218 0.0 2.6 0.00 0.00 0.00 1019.7
20260506155227 0 54 0.0 0.9 0.00 0.00 0.00 1019.7
20260506153335 0 215 0.9 1.7 0.00 0.00 0.00 1019.5
20260506152832 0 234 0.9 0.9 0.00 0.00 0.00 1019.8
20260506152329 0 89 0.0 1.7 0.00 0.00 0.00 1019.9
20260506151828 0 46 0.0 1.7 0.00 0.00 0.00 1019.7